#timestamp,LO_Frequency,Hit,StdDev 
1692709215.4,286046999.4,N
1692709235.3,286046998.7,N
1692709255.1,286046998.9,N
1692709256.0,286046998.9,N
1692709275.8,286047000.7,N
1692709295.7,286046998.1,N
1692709315.5,286046998.8,N
1692709335.3,286046999.3,N
1692709355.2,286046998.6,N
1692709375.0,286047000.9,N
1692709375.9,286047000.9,N
1692709395.8,286047000.5,N
1692709415.6,286047001.1,N
1692709435.4,286047000.5,N
1692709455.3,286047001.2,N
1692709475.1,286047000.7,N
1692709495.8,286047001.1,N
1692709515.7,286046998.2,N
1692709535.5,286047001.1,N
1692709555.4,286046998.1,N
1692709575.2,286047000.8,N
1692709595.0,286046998.6,N
1692709595.9,286046998.6,N
1692709615.8,286046998.5,N
1692709635.6,286047001.2,N
1692709655.4,286046999.4,N
1692709675.3,286046999.3,N
1692709695.1,286047001.1,N
1692709715.9,286046998.2,N
1692709735.7,286047001.0,N
1692709755.5,286047001.2,N
1692709775.4,286046998.4,N
1692709795.2,286047000.8,N
1692709815.0,286047001.1,N
1692709816.0,286047001.1,N
1692709835.8,286047000.9,N
1692709855.6,286046998.2,N
1692709875.5,286046998.5,N
1692709895.3,286047000.6,N
1692709915.1,286047001.1,N
1692709935.9,286047000.0,N
1692709955.7,286047000.5,N
1692709975.5,286047000.2,N
1692709995.4,286047000.3,N
1692710015.2,286047000.2,N
1692710035.1,286047000.1,N
1692710036.0,286047000.1,N
1692710055.8,286047000.1,N
1692710075.7,286047000.0,N
1692710095.5,286047000.1,N
1692710115.3,286047000.1,N
1692710135.2,286047000.5,N
1692710155.0,286047000.5,N
1692710155.9,286047000.5,N
1692710175.7,286047001.0,N
1692710195.6,286047000.1,N
1692710215.4,286047001.0,N
1692710235.3,286047000.8,N
1692710255.1,286047000.6,N
1692710256.0,286047000.6,N
1692710275.8,286047000.5,N
1692710295.7,286047000.5,N
1692710315.1,286047000.7,N
1692710316.0,286047000.7,N
1692710335.8,286047000.2,N
1692710355.6,286047000.5,N
1692710375.5,286047000.6,N
1692710395.3,286047000.1,N
1692710415.2,286047002.8,Y
1692710435.0,286046998.5,P
1692710435.9,286046998.5,N
1692710455.8,286046999.9,N
1692710475.6,286047000.0,N
1692710495.4,286047002.8,Y
1692710515.3,286047002.4,P
1692710535.1,286047002.5,N
1692710555.9,286047001.6,N
1692710575.7,286047001.8,N
1692710595.5,286047004.3,Y
1692710615.4,286046999.7,P
1692710635.2,286047002.6,N
1692710655.0,286047001.9,N
1692710655.9,286047001.9,N
1692710705.8,286047002.5,E
1692710715.7,286047000.3,N
1692710735.6,286046998.3,P
1692710755.4,286046998.4,N
1692710775.2,286046998.4,N
1692710795.1,286046999.3,N
1692710796.0,286046999.3,N
1692710815.8,286046996.6,Y
1692710835.7,286046998.2,P
1692710855.5,286046999.0,N
1692710875.3,286046998.1,P
1692710895.2,286046998.9,N
1692710915.0,286046998.1,Y
1692710915.9,286046998.1,P
1692710935.8,286047001.0,P
1692710955.6,286046998.5,N
1692710975.4,286046998.9,N
1692710995.3,286047000.3,N
1692711015.1,286047002.7,N
1692711035.8,286047001.4,N
1692711055.7,286047006.9,Y
1692711075.5,286047005.4,P
1692711095.4,286047004.0,N
1692711115.2,286047001.8,N
1692711135.0,286047002.7,N
1692711135.9,286047002.7,N
1692711155.8,286047000.1,N
1692711175.6,286047002.2,N
1692711195.4,286047000.3,N
1692711215.3,286046998.1,N
1692711235.1,286046998.8,N
1692711255.9,286046998.2,N
1692711275.7,286047000.9,N
1692711295.5,286046998.2,N
1692711315.4,286046998.3,N
1692711335.2,286046998.3,N
1692711355.1,286046999.3,N
1692711356.0,286046999.3,N
1692711375.8,286046998.4,N
1692711395.6,286046999.0,N
1692711415.5,286046998.2,N
1692711435.3,286046999.0,N
1692711455.1,286046999.3,N
1692711475.9,286046996.9,N
1692711495.7,286046996.5,N
1692711515.6,286046997.0,N
1692711535.4,286046996.5,N
1692711555.2,286046996.9,N
1692711575.1,286046999.3,N
1692711576.0,286046999.3,N
1692711595.8,286046997.2,N
1692711615.7,286046996.5,N
1692711635.5,286046996.9,N
1692711655.3,286046997.8,N
1692711675.2,286046997.4,N
1692711695.0,286046997.9,N
1692711695.9,286046997.9,N
1692711715.8,286046995.5,Y
1692711735.6,286046997.6,P
1692711785.5,286046996.5,E
1692711795.4,286046999.4,N
1692711815.2,286047000.7,P
1692711835.1,286046998.7,N
1692711836.0,286046998.7,N
1692711855.8,286046998.6,N
1692711875.6,286046998.3,N
1692711895.5,286046998.1,N
1692711915.3,286047000.5,N
1692711935.2,286047000.9,N
1692711955.9,286047000.8,N
1692711975.7,286047000.7,N
1692711995.6,286047001.0,N
1692712015.4,286047000.4,N
1692712035.2,286047000.6,N
1692712055.1,286047002.8,N
1692712056.0,286047002.8,N
1692712075.8,286047002.5,N
1692712095.7,286047002.0,N
1692712115.5,286047002.8,N
1692712135.4,286046999.9,N
1692712155.2,286047000.5,N
1692712175.0,286047002.5,N
1692712175.9,286047002.5,N
1692712195.8,286046999.7,N
1692712215.6,286046999.7,N
1692712235.4,286047000.5,N
1692712255.3,286046998.2,N
1692712275.1,286046998.4,N
1692712295.9,286046998.3,N
1692712315.7,286046998.9,N
1692712335.5,286046998.4,N
1692712355.4,286046999.1,N
1692712375.2,286046998.9,N
1692712395.0,286046998.9,N
1692712395.9,286046998.9,N
1692712415.8,286046998.9,N
1692712435.6,286046998.8,N
1692712455.5,286046999.2,N
1692712475.3,286046998.9,N
1692712495.1,286046998.3,N
1692712515.9,286046998.5,N
1692712535.7,286046998.4,N
1692712555.6,286046998.8,N
1692712575.4,286046999.4,N
1692712595.2,286047001.2,N
1692712615.1,286047001.1,N
1692712616.0,286047001.1,N
1692712635.8,286046998.2,N
1692712655.6,286046998.5,N
1692712675.5,286046998.4,N
1692712695.3,286046998.9,N
1692712715.2,286046998.9,N
1692712735.9,286046996.7,Y
1692712755.7,286046998.9,P
1692712775.6,286046999.3,P
1692712795.4,286046999.6,N
